Regional Weather Roundup
Issued by NWS Columbia, SC

Home | Current Version | Previous Version | Text Only | Print | Product List | Glossary On
Versions: 1 2 3 4 5 6 7 8 9 10 11 12 13 14 15 16 17 18 19 20 21 22 23 24 25 26 27 28 29 30 31 32 33 34 35 36 37 38 39 40 41 42 43 44 45 46 47 48 49 50
000
ASUS42 KCAE 301810
RWRCAE
REGIONAL WEATHER ROUNDUP
NATIONAL WEATHER SERVICE COLUMBIA SC
200 PM EDT SAT JUL 30 2016

NOTE: "FAIR" INDICATES FEW OR NO CLOUDS BELOW 12,000 FEET WITH NO
SIGNIFICANT WEATHER AND/OR OBSTRUCTIONS TO VISIBILITY.

NOT ALL STATIONS ARE QUALITY CONTROLLED BY THE NATIONAL
WEATHER SERVICE. USE DATA WITH CAUTION...ESPECIALLY
DEWPOINT OBSERVATIONS.

SCZ001>056-GAZ040-063>065-077-301900-
...UPSTATE SOUTH CAROLINA...

CITY           SKY/WX    TMP DP  RH WIND       PRES   REMARKS
ANDERSON       MOSUNNY   92  67  43 VRB7G16   30.01F HX  95
6HR MIN TEMP:  75; 6HR MAX TEMP:  92; 6HR PCP: TRACE;

LIBERTY        CLEAR     89  71  54 W5        30.01F HX  95
6HR MIN TEMP:  71; 6HR MAX TEMP:  90;

SPARTANBURG    MOSUNNY   88  68  51 CALM      30.01F
CLEMSON        PTSUNNY   91  66  43 VRB6      30.02F
6HR MIN TEMP:  75; 6HR MAX TEMP:  94; 6HR PCP: TRACE;

GREENVILLE     CLOUDY    91  68  46 SE8       30.03F HX  95
6HR MIN TEMP:  77; 6HR MAX TEMP:  91;

GREENWOOD      CLOUDY    78  74  87 S8        30.04F
6HR MIN TEMP:  77; 6HR MAX TEMP:  90; 6HR PCP:  0.07;

GREER          CLOUDY    87  70  56 S5        30.01F
6HR MIN TEMP:  74; 6HR MAX TEMP:  88;

ROCK HILL      MOSUNNY   92  68  45 S8        30.01F HX  96
6HR MIN TEMP:  74; 6HR MAX TEMP:  92; 6HR PCP: TRACE;

CHESTER        CLEAR     90  64  43 SW6       30.01F
LAURENS        MOCLDY    88  72  58 SW9       30.01F


...CENTRAL SOUTH CAROLINA...

CITY           SKY/WX    TMP DP  RH WIND       PRES   REMARKS
COLUMBIA APT   PTSUNNY   98  66  34 SW15      29.96F HX 101
6HR MIN TEMP:  80; 6HR MAX TEMP:  99;

COLUMBIA OWENS MOSUNNY   98  66  34 SW9       29.98F HX 101
6HR MIN TEMP:  80; 6HR MAX TEMP:  99;

MCENTIRE ANGB  MOSUNNY   96  69  41 VRB3      29.98F HX 102
6HR MIN TEMP:  78; 6HR MAX TEMP:  96;

ORANGEBURG     MOSUNNY   97  70  41 S12G20    29.99F HX 103
6HR MIN TEMP:  79; 6HR MAX TEMP:  97;

SUMTER SHAW    MOSUNNY   95  71  46 SW10      29.96F HAZE    HX 102
6HR MIN TEMP:  81; 6HR MAX TEMP:  95;

NEWBERRY       LGT RAIN  88  72  58 SW6       30.03F
AIKEN          MOCLDY    90  68  48 SW12G18   30.03F
MANNING        FAIR      95  70  43 S9G16     29.98F HX 101
LANCASTER      CLEAR     95  66  38 W10       29.99F HX  98
WINNSBORO      PTCLDY    93  64  38 SW7       29.98F HX  95


...EASTERN AND COASTAL SOUTH CAROLINA...

CITY           SKY/WX    TMP DP  RH WIND       PRES   REMARKS
MYRTLE BEACH   PTSUNNY   97  72  44 S9        30.00F HX 105
N MYRTLE BCH   MOSUNNY   93  77  59 S12       29.98F HX 107
6HR MIN TEMP:  84; 6HR MAX TEMP:  97;

CONWAY         FAIR      95  70  43 SW8       29.98F HX 101
MARION           N/A     95  70  43 SW9       29.98F HX 101
HARTSVILLE     FAIR      95  70  43 SW5       29.97F HX 101
FLORENCE       SUNNY     96  72  45 W14       29.98F HX 104
6HR MIN TEMP:  78; 6HR MAX TEMP:  96;

DARLINGTON     SUNNY     96  72  45 SW8       29.98F HX 104
6HR MIN TEMP:  78; 6HR MAX TEMP:  97;

CHARLESTON APT MOSUNNY   97  69  40 MISG      29.99F HX 103
6HR MIN TEMP:  83; 6HR MAX TEMP:  98;

MOUNT PLEASANT FAIR      93  75  55 S6        29.99F HX 104
WALTERBORO     PTCLDY    97  66  36 S7        30.00F HX 100
BEAUFORT       MOSUNNY  100  68  35 W12       30.00F HX 105
6HR MIN TEMP:  83; 6HR MAX TEMP: 100;



...EASTERN GEORGIA...

CITY           SKY/WX    TMP DP  RH WIND       PRES   REMARKS
AUGUSTA BUSH F PTSUNNY   86  71  60 SW9       30.00F
6HR MIN TEMP:  78; 6HR MAX TEMP:  97; 6HR PCP:  0.02;

AUGUSTA DANIEL MOSUNNY   85  72  65 CALM      30.02F
6HR MIN TEMP:  81; 6HR MAX TEMP:  95; 6HR PCP:  0.01;

WASHINGTON     FAIR      90  73  58 CALM      30.01F HX  98
CLAXTON        MOCLDY    94  72  47 SW3       30.01F HX 102
6HR MIN TEMP:  79; 6HR MAX TEMP:  96;

STATESBORO     SUNNY     96  73  47 SW7       30.01F HX 104
6HR MIN TEMP:  81; 6HR MAX TEMP:  96;

SAVANNAH       MOSUNNY   96  68  39 VRB5      30.01F HX 101
6HR MIN TEMP:  80; 6HR MAX TEMP:  98;



...SOUTHERN NORTH CAROLINA...

CITY           SKY/WX    TMP DP  RH WIND       PRES   REMARKS
CHARLOTTE      PTSUNNY   90  69  50 SW6       30.01F
6HR MIN TEMP:  76; 6HR MAX TEMP:  90;

MONROE         PTSUNNY   93  67  42 SW9       29.99F HX  96
6HR MIN TEMP:  77; 6HR MAX TEMP:  94;

ROCKINGHAM     CLEAR     94  72  49 W8        29.97F HX 102
6HR MIN TEMP:  78; 6HR MAX TEMP:  94;

RUTHERFORDTON    N/A     86  71  59 SE3       30.02F
ASHEVILLE      SUNNY     84  68  58 SW6       30.09F
6HR MIN TEMP:  69; 6HR MAX TEMP:  84; 6HR PCP: TRACE;


$$



USA.gov is the U.S. government's official web portal to all federal, state and local government web resources and services.